Theta_e
331 332 331 328 326 327 327 327 328 328 330 333 334 334 335 334 333 331 331 331 330 329 329 328 327 325 324 326 326 327 328 328 331 329 330 330 333 334 334 333 332 333 331 329 329 332 328 327 327 326 328 328 327 326 324 325 323 322 324 322 322 322 323 324 324 325 322 320 321 322 322 325 327 328 327 327 327 327 329 328 327 326 326 327 327
323 322 323 325 325 325 325 325 327 326 327 329 331 333 334 334 332 331 330 330 329 329 328 327 327 326 325 325 324 326 326 326 326 325 329 331 330 331 332 331 331 332 332 330 331 328 327 327 327 326 326 327 326 325 323 326 324 324 324 322 321 319 320 323 324 322 318 317 317 317 321 323 324 324 327 327 327 326 325 326 327 327 327 327 326
319 321 322 323 324 324 324 325 325 327 327 327 329 332 333 332 331 329 329 329 328 328 327 326 326 327 326 324 325 324 326 326 326 327 330 330 329 330 330 330 331 332 332 331 330 329 328 327 327 326 326 328 325 324 323 323 323 327 324 322 322 321 322 323 322 319 318 318 318 317 314 314 317 318 322 325 326 323 324 326 328 327 328 330 327
318 319 320 321 322 322 323 323 324 325 325 326 328 331 332 331 330 329 329 329 328 328 328 328 328 326 326 324 323 324 321 324 324 326 327 327 327 328 327 330 330 331 331 331 330 329 328 327 326 326 326 327 325 324 322 322 322 323 323 321 322 320 318 320 322 322 321 320 314 312 312 314 311 311 315 321 325 326 324 325 328 328 329 329 327
318 319 319 320 321 321 322 323 324 324 325 327 329 330 331 329 330 330 329 329 329 331 329 327 327 323 323 323 322 321 322 322 323 322 323 325 324 324 327 328 329 329 328 329 330 328 327 327 326 326 326 326 326 325 324 324 324 323 323 323 322 319 317 319 320 322 322 321 317 313 310 310 310 312 316 316 320 320 323 326 327 327 328 327 326
320 319 319 320 321 321 321 322 323 324 325 327 330 331 331 330 330 330 330 330 330 329 327 326 324 322 321 319 318 317 317 319 319 321 321 322 321 322 324 325 328 328 328 328 328 328 326 327 326 327 325 325 327 325 325 324 324 323 324 325 321 318 319 317 317 320 322 324 320 317 314 311 313 314 311 309 315 318 320 325 325 326 327 325 324
319 319 319 319 320 320 320 321 322 323 325 327 329 330 331 331 331 331 330 330 329 327 325 325 322 322 321 319 318 318 317 318 320 323 323 321 322 321 322 323 326 328 326 326 325 325 324 325 325 326 326 324 326 326 325 326 326 327 326 324 323 321 319 317 319 318 320 321 322 323 322 318 320 315 307 309 308 311 313 318 321 324 324 323 323
318 318 319 320 320 320 320 321 322 323 325 326 328 330 331 331 331 330 330 329 328 326 324 324 322 321 319 318 318 318 319 318 320 321 322 322 321 320 319 320 323 325 325 324 325 324 323 323 323 323 325 326 327 325 324 324 327 327 327 325 324 322 320 319 318 320 320 319 321 320 320 320 319 315 315 312 310 309 309 313 313 317 317 316 319
319 318 318 318 319 320 321 321 323 324 325 326 328 330 331 331 331 330 329 328 327 325 324 324 324 323 321 321 320 320 319 319 320 322 321 322 319 318 319 319 320 320 321 322 321 323 325 324 324 323 323 325 326 326 324 325 325 325 325 324 323 321 320 318 320 320 320 319 318 316 320 319 317 317 315 312 309 308 306 309 310 310 311 313 315
318 318 319 319 319 320 322 323 323 324 325 327 329 331 331 331 329 329 328 327 326 325 324 324 323 323 322 322 322 319 319 318 320 320 319 319 318 317 317 317 317 319 320 320 322 322 321 321 320 320 322 324 325 323 324 324 324 324 325 325 324 322 320 320 320 320 321 320 319 318 317 315 315 313 312 310 311 309 309 308 307 307 307 309 313
317 318 318 319 320 321 322 322 323 324 325 328 329 330 330 330 329 327 327 325 325 324 324 323 323 323 323 323 321 317 317 317 317 316 317 317 318 316 316 317 318 319 319 319 320 321 322 322 320 321 322 325 324 324 324 324 323 324 325 325 324 323 321 319 318 319 320 320 318 318 318 317 314 311 311 310 309 308 308 308 308 308 309 308 310
317 317 317 318 319 320 321 321 322 323 325 326 327 329 329 329 328 326 324 323 324 323 322 322 322 322 323 324 320 318 317 317 316 316 317 317 317 315 315 317 316 317 316 317 318 319 320 318 319 318 319 319 320 321 321 322 321 324 323 324 323 322 322 321 319 318 318 319 318 317 317 315 313 315 314 312 311 310 310 307 306 307 308 308 310
317 318 318 317 317 318 319 321 322 322 324 326 327 327 327 326 325 323 322 322 323 322 322 321 320 321 322 323 321 319 317 316 316 316 316 316 316 317 316 316 315 316 314 316 315 317 318 318 317 316 316 317 320 321 320 321 320 321 321 321 322 321 321 320 319 319 319 319 319 317 319 317 317 317 316 314 312 311 310 307 307 307 306 306 307
317 318 318 317 317 318 319 321 322 323 324 326 327 326 325 324 323 323 322 322 322 321 321 320 320 320 321 322 322 319 317 317 316 318 317 317 318 317 316 317 316 315 313 313 315 318 318 318 317 315 315 316 318 318 318 319 320 322 320 319 319 319 319 319 318 317 316 316 317 317 317 317 317 319 317 315 313 311 308 308 307 304 305 306 302
317 317 318 318 318 318 319 321 322 323 324 325 325 325 324 323 323 322 322 322 321 320 319 319 319 320 320 321 322 319 318 317 317 319 318 318 318 318 317 318 317 315 315 315 316 317 315 314 314 313 314 315 316 317 319 318 318 320 319 317 317 317 318 318 317 318 319 317 316 316 318 317 318 318 317 316 315 312 310 308 306 303 300 299 299
316 316 317 318 319 319 320 320 321 323 324 324 324 324 323 323 323 322 322 322 321 319 318 319 318 319 319 319 320 319 319 318 318 319 318 319 318 318 318 318 317 317 317 317 316 317 315 315 315 314 314 315 315 315 315 316 316 317 316 316 317 320 317 317 316 318 317 316 316 315 317 316 316 318 318 318 315 314 311 309 308 306 302 296 296
316 316 316 317 319 320 321 321 322 323 323 323 323 323 323 322 322 322 322 321 321 319 319 319 319 319 318 319 319 318 318 317 318 318 317 317 319 319 318 317 317 317 318 316 316 314 315 314 313 313 313 313 314 314 314 313 313 313 313 312 312 311 312 311 310 313 313 315 314 315 316 315 316 316 316 316 316 314 312 307 305 307 304 298 294
318 317 317 318 319 319 320 321 322 322 322 323 323 320 320 322 323 322 322 320 320 320 320 320 320 320 319 319 318 318 318 317 318 317 318 318 317 317 316 316 316 318 318 317 315 314 316 318 313 311 311 313 312 312 312 311 311 310 310 310 310 310 310 310 311 311 309 310 311 310 311 312 314 315 314 312 313 314 310 307 305 305 303 300 296
316 317 317 317 317 318 319 319 321 320 321 322 322 321 321 321 322 323 322 322 321 322 321 321 322 322 321 319 319 317 317 318 317 317 317 317 315 315 315 316 316 316 316 313 312 312 311 311 311 309 310 311 311 311 310 310 310 309 310 310 310 311 310 309 309 311 310 311 310 310 309 309 309 310 309 310 310 312 310 307 306 306 304 301 299
316 317 318 319 318 318 318 319 320 320 320 321 321 320 320 321 320 322 322 322 322 322 322 322 322 322 320 319 318 318 318 317 316 316 316 315 315 315 315 315 316 315 312 312 311 311 310 309 309 309 309 309 309 308 308 308 309 309 309 310 309 310 311 310 309 309 312 310 309 308 307 308 308 309 309 309 308 308 310 308 307 305 302 301 300
315 316 316 317 317 317 317 318 320 320 320 321 320 320 320 320 321 321 322 323 323 323 323 322 321 321 320 319 319 317 316 316 316 316 316 315 315 315 315 315 314 313 312 311 310 309 309 309 308 309 308 308 307 307 307 307 307 307 307 308 308 310 310 308 309 308 309 310 310 309 308 308 307 308 307 307 308 308 307 308 307 305 303 302 301
315 315 316 316 315 316 316 318 317 318 318 319 319 319 319 319 320 323 324 324 323 323 322 321 320 321 320 320 319 317 316 316 315 315 315 315 315 314 314 314 313 312 312 312 310 310 309 308 307 308 308 307 307 307 307 307 307 307 307 309 308 309 308 307 307 308 308 310 308 307 308 307 307 307 307 308 308 307 307 306 305 304 302 302 302
315 314 315 315 314 315 317 317 317 317 317 317 317 318 319 320 321 322 323 322 323 323 322 321 321 320 319 320 320 318 318 317 316 314 314 315 314 314 315 314 313 312 312 312 311 309 309 307 307 307 307 307 307 307 307 306 305 306 306 307 308 306 307 307 308 308 308 307 307 307 307 308 309 307 306 306 307 307 307 306 305 305 303 303 302
314 315 315 314 315 316 317 316 317 317 317 318 318 319 319 319 319 319 319 320 321 322 322 321 320 320 320 320 320 320 320 319 317 315 314 314 315 314 314 314 313 312 313 312 310 310 309 307 307 307 307 307 307 308 307 306 306 306 307 307 306 306 306 306 308 308 307 307 306 305 305 306 307 307 306 306 306 306 307 307 306 305 305 304 303
314 314 314 315 316 316 316 316 316 317 316 315 317 317 317 317 317 318 318 319 320 320 321 321 321 319 319 318 319 320 319 320 319 316 314 314 314 313 313 313 312 311 312 312 311 311 309 308 308 306 306 307 308 308 306 307 307 307 308 307 307 307 307 307 308 308 311 307 306 305 306 305 306 307 305 306 307 306 307 307 307 307 306 306 306
310 312 312 312 313 314 314 314 315 315 316 316 317 318 318 318 317 318 318 317 317 318 319 319 319 318 317 317 318 318 319 317 318 317 315 315 315 314 314 313 313 311 312 312 311 309 310 308 307 307 306 307 308 307 306 308 308 307 307 307 308 307 307 307 307 308 308 307 306 306 306 305 305 306 305 305 306 306 306 306 306 306 307 307 305
301 302 302 302 302 302 304 306 310 314 315 314 316 317 317 316 317 318 318 317 317 317 317 316 317 317 317 317 317 317 317 317 317 318 319 318 315 315 314 314 312 310 311 310 309 309 310 309 308 308 308 309 308 308 307 308 308 307 307 307 307 307 307 307 307 308 307 306 306 306 306 305 306 306 307 307 306 306 308 305 306 307 307 306 305
297 297 297 296 297 297 298 299 300 303 309 314 315 316 315 315 316 317 317 317 317 316 315 315 316 316 317 317 317 317 316 316 316 318 319 319 319 317 314 314 314 312 312 309 308 309 309 309 309 308 309 309 308 307 307 307 308 308 307 306 307 307 307 307 307 307 307 306 306 307 307 307 307 308 308 307 308 308 307 306 305 307 306 306 305
294 295 295 295 295 295 296 297 298 299 300 301 305 309 313 316 316 317 317 317 316 316 317 316 316 315 315 316 316 317 317 317 317 317 317 318 318 319 318 316 314 314 314 312 310 310 309 308 307 308 308 308 309 309 309 308 307 308 307 307 307 308 308 307 306 307 307 307 306 307 307 308 311 315 311 309 310 310 309 308 305 305 306 306 304
293 294 294 294 295 295 295 296 297 298 299 299 300 301 302 305 311 316 317 317 316 315 315 315 315 314 315 316 315 315 316 317 317 317 317 318 318 317 317 316 315 314 313 313 312 311 309 308 308 308 307 309 309 310 312 308 308 310 307 309 308 306 307 307 307 307 306 307 308 307 308 317 315 312 308 305 304 306 308 309 308 306 306 306 305
293 293 293 294 294 295 295 295 295 296 297 298 299 300 301 304 307 312 314 316 317 315 314 314 314 315 315 316 316 315 315 315 316 316 314 317 317 317 316 315 315 314 314 313 312 311 310 308 310 309 309 310 310 310 305 300 300 304 309 308 308 307 306 306 306 307 307 308 309 308 308 314 313 311 305 300 300 299 300 301 303 305 307 307 305
292 292 292 292 293 293 294 294 295 296 296 296 297 298 299 301 302 302 302 303 303 303 303 304 308 313 316 316 314 315 314 314 313 315 315 315 316 315 314 311 313 313 312 312 313 311 310 308 309 308 308 310 310 306 296 298 299 300 305 310 310 309 309 308 308 308 309 309 310 309 308 312 310 309 305 301 299 297 296 295 295 296 299 302 303
292 292 293 293 293 293 293 294 295 295 296 296 296 297 297 299 301 302 302 301 301 300 300 300 301 302 303 308 314 315 315 313 313 313 313 313 312 313 314 314 313 313 311 313 310 310 310 308 308 308 308 307 307 298 295 297 300 300 299 306 310 310 309 309 310 309 310 310 309 309 309 310 311 313 310 304 301 298 296 295 295 295 295 295 296
292 293 293 294 294 295 294 296 296 296 297 297 297 297 297 299 300 301 301 300 300 300 299 299 300 300 300 300 301 301 302 304 308 309 310 310 311 312 311 311 311 309 311 312 311 310 309 309 308 308 307 306 306 301 294 296 297 295 296 303 311 311 310 310 311 312 312 311 311 310 310 309 309 310 308 306 303 301 299 299 299 299 298 296 295
291 292 293 293 295 296 296 295 296 298 297 298 297 297 297 298 299 298 299 299 299 299 298 298 297 298 298 297 298 297 298 300 302 303 303 304 305 306 307 309 310 310 309 310 310 310 309 309 308 307 306 307 309 303 295 293 293 295 294 298 307 310 311 311 311 312 313 312 312 312 311 311 311 310 309 307 305 302 301 301 300 299 297 300 300
292 292 293 294 295 295 295 295 297 297 298 298 298 298 298 299 300 300 299 298 298 298 298 298 297 297 297 298 297 297 297 298 298 299 299 299 300 301 302 304 305 307 307 308 306 307 307 308 309 307 307 308 310 302 297 294 293 293 294 304 305 309 309 310 310 311 312 310 311 313 313 312 312 311 307 300 303 305 303 302 301 299 298 295 294
294 294 295 296 297 296 297 297 296 297 297 297 298 298 298 298 299 299 299 298 297 297 297 297 297 297 297 297 297 297 297 297 297 297 297 297 297 298 298 300 300 300 301 303 306 307 309 310 307 306 307 308 309 305 298 296 295 294 296 305 305 308 309 309 310 311 311 311 312 312 310 311 310 310 306 297 298 300 304 303 302 299 297 295 293
294 295 295 296 296 297 298 297 296 296 296 297 296 297 297 298 298 298 297 297 297 297 298 297 297 297 297 297 297 297 297 297 296 296 296 296 297 297 297 298 297 297 298 299 302 304 306 307 308 309 309 310 311 309 302 299 297 294 299 306 306 306 305 307 307 309 309 312 314 311 313 311 310 312 303 297 296 302 305 305 302 299 297 294 292
294 294 294 294 294 296 296 295 294 295 295 296 296 296 296 296 296 296 296 296 296 296 297 297 297 298 298 298 298 298 298 297 297 297 297 297 296 296 297 297 297 297 298 298 299 300 301 302 305 309 312 311 311 309 303 300 299 296 299 306 307 306 305 304 306 308 308 309 310 310 309 310 310 309 302 297 296 301 307 306 304 301 298 295 294
296 295 295 296 295 293 292 292 293 293 294 294 295 295 296 295 295 295 295 295 295 296 296 297 297 297 298 298 298 298 298 298 298 298 298 298 298 297 297 297 297 297 297 297 298 298 298 299 301 303 307 309 310 311 309 302 300 299 298 305 306 306 306 306 306 308 308 307 308 309 307 301 300 301 298 295 296 298 307 306 304 302 299 297 296
292 293 295 293 293 293 293 293 294 295 295 296 296 295 295 295 294 293 294 294 295 295 296 296 296 297 297 297 297 297 296 297 297 297 297 297 297 297 297 297 297 297 297 297 297 298 298 298 299 300 302 304 308 309 310 303 302 300 298 299 306 307 308 308 306 306 308 308 307 307 307 303 298 297 296 295 295 296 300 306 304 303 302 300 296
294 294 294 294 294 295 295 296 296 296 296 295 295 295 295 294 294 293 293 294 294 294 294 295 295 295 296 296 296 295 296 297 296 296 294 294 295 295 295 295 295 294 294 295 295 296 296 297 297 298 299 301 304 306 309 305 302 302 299 296 304 307 307 308 306 306 308 307 308 307 306 303 297 296 296 295 294 296 297 305 304 298 294 293 296
292 293 294 294 294 294 295 295 295 295 295 295 294 294 293 293 292 291 293 293 294 294 293 293 294 293 294 294 294 294 294 296 295 294 293 293 293 293 293 293 292 292 292 292 292 293 293 294 295 296 297 299 300 302 300 303 301 301 300 296 297 301 299 306 308 308 308 308 307 305 303 299 296 295 294 294 295 295 296 298 295 293 293 293 295
292 293 293 293 292 294 294 294 295 295 294 294 294 293 293 292 291 292 293 293 293 292 292 292 292 292 292 293 293 294 293 293 293 293 293 292 293 293 293 293 293 292 292 291 290 291 291 291 292 293 294 296 298 300 299 299 301 299 299 296 294 293 296 304 307 308 308 307 304 302 299 293 293 293 293 294 293 294 297 293 293 292 292 294 298
292 292 293 293 292 292 291 292 291 291 292 292 291 292 291 290 291 292 293 292 292 292 292 291 291 291 291 292 292 292 292 292 292 292 292 292 291 292 291 291 291 291 291 290 290 291 291 291 291 291 292 294 296 298 299 299 298 296 296 295 293 291 292 292 299 302 303 304 300 296 293 291 292 292 292 292 293 293 290 291 292 292 295 297 296
291 291 291 291 291 291 291 291 291 292 292 292 292 291 291 290 291 291 290 291 291 291 291 290 290 289 290 291 290 290 290 291 291 291 290 290 290 290 290 290 289 289 289 290 288 289 289 289 289 290 291 292 294 295 297 299 298 296 294 292 291 291 292 291 295 299 296 295 293 291 290 290 290 290 292 293 293 292 291 291 292 295 296 294 293
289 289 290 290 290 290 291 291 291 291 291 292 291 292 291 291 290 291 291 290 290 289 290 289 288 289 289 288 288 289 289 290 289 290 290 291 290 290 290 289 289 288 289 288 289 288 288 288 289 289 290 291 292 294 295 297 298 297 296 295 294 293 292 292 295 295 293 293 291 291 291 290 290 290 289 289 290 291 292 294 295 294 293 293 293
290 290 289 289 289 289 290 291 291 290 291 291 291 291 291 291 291 291 290 290 290 289 289 288 289 289 289 289 289 288 289 288 289 289 288 289 289 290 289 289 289 289 288 288 288 287 288 288 289 289 290 290 291 292 294 295 297 297 297 296 295 295 295 296 297 295 294 293 292 289 290 291 290 290 290 289 289 290 290 290 291 291 290 290 291
290 289 289 290 292 291 291 291 291 291 291 291 290 290 291 290 290 290 290 290 289 289 288 289 289 289 289 289 290 289 288 288 287 288 288 288 288 289 289 289 290 289 290 289 288 288 289 289 288 289 289 289 290 291 293 293 294 293 294 295 293 294 295 296 294 291 292 291 291 290 288 289 289 288 287 288 288 289 289 291 291 290 289 290 289
288 289 289 290 292 291 290 291 290 290 291 291 290 290 290 290 290 290 290 289 288 288 287 288 289 288 289 289 289 288 289 289 289 289 288 289 288 290 290 289 289 291 290 290 289 288 290 289 288 289 289 289 289 292 292 291 291 291 292 292 292 292 292 295 291 290 291 289 288 288 287 287 287 288 288 288 288 289 288 288 287 287 288 288 287
289 289 289 289 289 290 289 289 289 289 289 289 288 288 288 289 289 288 288 287 287 287 287 286 288 288 288 289 289 289 290 291 291 291 290 288 288 289 289 290 290 290 290 290 289 289 289 289 289 288 289 290 289 289 290 291 291 291 292 292 291 291 291 290 289 290 288 288 288 287 285 286 287 288 288 288 288 288 288 287 287 287 286 286 286
Wind_Speed
7 10 8 12 13 12 16 17 14 12 8 9 10 10 9 8 7 7 6 7 7 7 7 7 5 4 3 4 5 5 5 4 4 3 2 2 2 3 3 4 3 4 4 5 5 5 4 4 4 3 5 5 5 4 3 4 3 3 3 3 6 7 3 3 3 6 9 5 5 5 5 5 5 5 4 4 4 2 3 3 4 3 3 3 2
18 17 19 18 14 14 15 12 10 12 9 11 13 11 10 10 9 6 5 5 6 7 7 6 5 5 5 6 4 5 4 4 4 2 3 3 3 3 3 3 4 4 4 4 5 5 5 4 4 4 4 4 4 4 3 3 2 2 3 3 2 5 3 4 5 5 3 5 6 2 4 4 3 4 4 4 4 3 3 3 3 3 3 1 2
18 15 16 20 20 18 16 16 14 12 11 12 10 10 10 9 7 6 6 6 6 6 7 6 4 4 4 4 4 3 1 3 4 3 4 5 4 4 3 3 4 3 4 5 6 5 5 5 5 5 4 4 4 4 3 3 3 3 3 4 4 3 4 1 3 1 5 4 4 5 1 3 1 3 3 4 5 2 3 4 4 3 1 2 4
15 14 13 11 13 12 11 10 11 9 1 1 7 10 9 8 8 8 7 7 7 6 7 5 5 4 1 3 3 3 3 3 3 3 3 3 4 3 3 4 4 4 3 4 4 5 6 5 5 4 4 4 5 5 4 3 3 3 3 3 4 5 2 0 1 1 4 9 4 1 2 2 3 0 1 2 3 2 4 2 2 2 3 3 4
16 14 13 13 13 15 14 13 13 16 14 8 6 7 7 9 9 9 8 8 7 6 6 5 5 3 4 4 4 5 4 4 5 3 3 3 3 3 4 4 4 3 3 3 4 5 4 4 4 4 5 5 5 5 5 4 4 3 3 4 4 6 3 2 1 2 5 2 5 5 2 0 2 2 3 2 2 2 1 0 2 3 3 4 2
17 14 14 14 14 13 11 12 12 12 15 15 13 9 8 8 8 7 7 7 7 6 6 6 6 7 7 8 8 6 6 6 6 6 3 4 4 1 3 3 4 4 3 3 3 4 4 4 4 4 4 4 5 5 4 3 3 3 3 4 4 3 6 4 2 0 4 2 3 2 5 5 5 4 3 1 1 1 2 1 1 1 2 4 3
12 14 14 14 12 12 11 12 12 14 13 11 12 11 9 9 9 9 8 7 6 5 6 6 6 6 8 9 8 9 9 5 5 5 6 3 3 4 4 3 4 5 3 3 3 3 3 4 4 4 3 3 2 4 5 5 4 4 3 4 4 5 5 5 6 4 1 0 1 1 1 2 7 7 3 4 4 2 3 2 1 1 2 3 3
12 15 14 14 14 15 15 11 10 10 10 8 9 10 11 10 9 8 6 6 5 6 7 7 8 7 7 7 8 8 8 7 7 5 4 4 5 4 4 4 4 4 5 3 3 3 3 3 3 3 4 4 3 3 3 3 4 3 4 4 4 4 5 7 6 5 7 3 0 3 3 4 5 3 3 6 6 7 2 2 2 3 3 2 4
13 11 12 14 13 11 12 13 10 10 10 11 10 10 10 10 9 8 8 7 6 7 8 6 7 8 8 8 8 6 7 7 6 6 6 5 5 3 4 4 4 3 3 4 3 3 3 3 3 3 3 3 3 3 2 2 3 4 4 4 5 4 3 3 6 6 5 5 4 3 5 4 3 4 4 3 5 7 2 2 1 3 5 4 5
14 16 14 14 13 13 13 13 13 14 14 13 13 14 14 12 11 10 9 6 7 7 7 6 5 7 8 7 8 6 6 6 6 6 5 4 5 4 4 5 5 6 5 4 5 4 3 3 2 3 4 3 2 3 3 3 3 3 5 5 4 4 3 4 5 5 4 4 4 5 4 3 4 3 3 4 4 3 8 6 3 5 5 2 5
13 14 14 14 14 14 14 15 13 12 13 17 17 14 12 12 12 11 8 5 6 7 7 8 6 7 8 8 8 8 8 8 8 6 5 4 6 4 5 4 4 6 5 4 4 4 4 4 3 4 3 3 3 4 4 5 4 4 4 3 5 6 5 4 3 4 4 4 3 5 7 9 9 6 7 4 4 5 6 5 4 3 7 8 3
11 11 10 11 10 10 12 14 12 11 9 8 8 10 10 11 12 12 7 5 4 5 5 6 6 6 5 6 8 8 9 8 9 8 6 6 6 5 3 5 4 5 4 4 4 4 5 4 4 4 4 4 4 3 3 2 2 3 5 4 4 4 4 5 5 5 5 5 4 4 4 2 3 6 6 6 8 8 10 8 6 6 5 3 4
10 9 11 11 12 12 11 9 7 5 9 11 11 10 9 8 9 10 7 6 6 5 5 4 4 4 4 4 6 7 7 8 7 7 5 6 5 5 4 5 5 5 4 5 4 4 4 5 4 5 4 3 4 4 3 2 2 2 3 4 4 5 5 6 6 6 7 7 6 3 4 2 4 4 6 6 5 6 8 8 4 4 8 6 4
10 10 11 10 8 7 7 9 8 7 8 8 9 9 8 7 8 9 8 6 6 6 5 4 3 3 3 2 3 3 5 6 6 7 5 6 6 6 5 6 6 5 4 4 3 4 3 3 4 4 4 4 4 4 4 3 3 3 2 3 4 3 3 4 5 4 3 2 3 5 3 2 2 5 5 6 7 8 7 9 7 3 4 7 3
7 8 7 8 6 7 10 10 8 5 5 5 5 7 7 8 10 10 8 6 6 6 4 4 4 3 3 1 0 1 4 5 6 6 6 5 5 5 4 5 5 3 5 3 3 5 4 3 4 5 4 4 4 4 4 4 3 3 2 3 2 2 3 3 3 3 4 3 3 3 4 5 3 4 6 6 6 7 8 8 8 9 4 3 3
7 7 7 9 8 8 9 9 8 6 6 3 5 5 7 8 9 10 10 8 7 5 4 6 4 4 3 1 1 3 3 4 5 4 4 5 5 6 5 4 5 4 4 4 4 5 4 4 4 4 3 4 4 5 4 4 4 4 3 3 3 1 3 2 3 3 3 4 4 3 4 4 3 3 4 6 7 6 6 6 8 9 10 4 2
7 7 8 9 8 8 8 8 8 7 6 6 4 4 4 6 8 9 8 7 6 5 6 5 5 5 3 1 1 4 5 6 6 5 4 4 6 5 6 5 4 5 4 3 5 4 4 5 4 4 4 4 4 4 4 4 4 4 3 3 3 2 2 2 2 3 3 5 4 4 5 5 5 3 3 4 3 3 4 4 3 9 8 9 4
6 7 7 7 7 7 6 7 8 7 7 6 6 4 4 6 9 11 9 9 7 8 7 6 6 5 3 0 2 4 4 5 5 5 5 6 5 6 5 6 4 4 4 3 4 4 4 5 5 4 3 4 4 4 4 4 4 4 4 3 2 2 3 3 3 3 3 3 3 3 3 5 4 4 4 3 3 4 5 5 4 1 6 11 6
6 6 9 8 8 8 7 7 5 5 7 7 6 5 4 3 3 5 9 9 10 7 5 5 5 4 4 3 4 4 4 5 5 5 5 7 7 6 5 5 4 4 5 4 4 4 4 4 4 4 4 4 4 4 4 4 5 5 4 4 3 4 5 4 2 5 3 5 5 4 3 4 4 4 3 3 3 4 5 6 5 5 4 6 9
6 5 4 7 8 6 5 6 8 7 6 5 4 3 3 1 2 2 2 3 4 4 5 5 4 6 5 3 4 4 5 6 6 7 6 7 6 6 6 5 4 3 4 4 4 4 4 4 4 4 4 4 4 4 4 4 4 4 4 4 3 5 5 4 4 3 4 5 6 5 4 5 5 6 5 4 4 3 6 6 6 6 3 2 7
5 4 3 3 4 5 4 5 5 6 6 5 5 4 4 3 3 2 4 5 6 5 5 4 5 5 6 5 6 5 5 6 6 7 8 7 6 6 5 5 4 4 4 4 4 4 4 4 4 4 4 4 4 4 3 4 4 4 3 4 3 5 5 4 4 4 3 5 5 5 4 4 4 7 5 5 4 4 4 6 6 7 5 4 7
5 4 6 8 9 10 9 7 8 8 6 5 3 3 3 4 4 6 6 6 6 6 5 4 4 5 5 5 5 5 6 6 7 6 8 7 7 6 6 5 5 4 4 4 4 3 3 3 4 3 3 4 4 3 2 4 4 4 3 2 4 4 4 4 4 4 4 4 4 5 4 4 4 7 6 7 7 6 6 6 6 7 7 5 5
5 5 8 8 7 5 9 7 5 5 3 4 5 5 5 4 5 6 7 5 6 6 5 4 5 6 9 10 8 3 3 6 7 6 7 7 6 6 5 6 5 5 4 4 4 4 3 3 3 3 3 3 3 3 3 3 4 4 4 2 3 4 4 4 5 5 4 4 5 5 5 5 4 6 5 5 5 6 5 8 7 7 7 6 4
6 7 7 7 7 7 9 6 6 4 4 5 5 5 4 4 4 5 8 7 8 7 7 7 7 10 11 11 10 9 12 8 3 6 6 5 6 5 4 6 6 5 5 3 4 4 3 3 3 2 2 3 2 3 3 3 4 4 4 4 2 3 3 4 4 4 4 4 5 5 4 5 6 7 5 6 4 5 6 6 6 5 7 6 4
8 8 8 8 9 10 8 5 5 5 5 6 7 7 7 5 3 3 4 5 7 6 7 6 8 9 8 7 7 6 6 3 11 3 5 5 5 5 4 5 5 5 4 4 3 2 4 3 4 4 3 2 3 3 3 3 3 4 4 4 3 3 4 4 4 4 4 4 4 5 4 4 5 7 5 6 5 5 5 6 6 6 6 6 5
11 11 12 12 10 10 9 8 7 6 5 5 5 5 5 5 5 4 5 7 6 7 7 7 7 8 7 7 5 3 6 9 5 1 3 0 4 5 4 4 5 5 4 5 6 4 5 5 4 4 4 3 2 3 4 4 4 4 4 4 4 4 4 4 4 4 4 4 4 4 3 4 5 6 4 4 4 5 4 4 5 4 5 4 5
14 12 12 14 14 13 11 9 7 6 6 6 5 6 6 6 6 6 5 6 6 7 7 7 7 7 7 5 5 8 3 4 3 1 5 4 3 1 4 4 4 4 5 5 5 5 5 6 5 4 4 4 4 4 3 2 3 4 4 5 4 4 4 4 4 4 4 4 4 3 3 3 4 5 5 5 5 5 5 5 6 6 5 5 5
13 14 15 14 12 12 12 10 10 8 8 7 6 5 5 5 5 5 4 5 5 7 6 5 6 6 6 4 6 7 4 3 2 3 4 1 1 5 3 2 3 4 4 5 5 5 6 5 6 5 5 5 4 4 3 3 2 4 4 4 4 4 5 4 4 4 4 4 4 4 4 4 5 5 6 5 6 7 5 5 4 4 5 6 6
14 12 11 11 12 11 12 12 11 11 12 11 10 9 7 6 6 5 7 6 5 6 6 5 3 4 5 5 5 5 4 4 4 4 5 4 3 3 5 4 2 3 3 4 4 4 5 4 4 5 5 4 5 5 4 4 4 3 3 4 4 4 5 5 4 4 4 4 4 4 4 4 4 7 9 8 7 7 7 6 3 4 5 6 4
13 12 10 10 10 10 12 13 14 12 12 12 11 10 9 8 7 7 8 7 6 7 7 6 5 4 5 5 3 4 4 6 8 8 5 4 3 5 4 2 1 0 0 1 3 2 3 4 4 4 4 4 5 4 7 11 9 6 4 4 3 3 4 5 5 5 5 4 4 4 3 6 8 8 8 7 7 6 4 6 8 7 6 6 6
10 10 11 10 9 10 10 12 12 12 12 11 11 11 11 11 9 9 8 6 6 8 8 6 6 6 5 5 5 6 5 4 6 2 1 3 1 1 5 4 3 2 2 1 1 2 2 3 4 4 6 6 4 4 8 12 13 12 7 5 5 4 3 4 4 5 6 5 4 4 2 5 7 8 8 11 10 9 8 7 5 6 6 8 7
11 11 11 13 13 13 11 10 9 9 9 9 10 11 12 11 11 11 10 10 10 11 10 9 7 6 5 6 4 3 3 2 2 1 1 2 3 2 2 6 4 2 3 3 4 2 2 3 3 2 4 6 5 6 6 10 12 12 11 8 6 6 5 5 5 5 5 4 4 4 4 4 6 7 7 6 7 10 9 7 6 6 5 2 2
10 11 11 12 11 9 10 10 9 9 8 7 8 12 12 9 10 9 9 10 10 10 10 10 10 10 9 7 4 4 4 2 2 1 1 1 2 3 6 5 3 3 3 3 2 2 2 1 2 2 2 2 3 6 7 8 9 8 10 8 7 7 7 7 6 7 6 6 5 5 5 5 5 8 7 7 7 6 6 8 8 7 7 6 3
10 10 11 9 9 7 7 9 9 8 7 6 9 9 8 8 8 8 9 9 10 10 9 9 9 9 8 7 7 8 7 5 3 3 2 2 3 2 3 2 2 1 1 3 1 2 2 1 1 2 3 2 3 5 6 8 9 8 7 7 5 6 6 6 7 8 7 7 7 8 7 7 5 6 6 6 6 6 6 5 4 4 3 4 6
10 11 9 9 8 7 7 8 7 7 8 9 10 8 7 9 8 10 9 10 10 10 10 8 8 7 7 6 6 6 7 7 6 6 6 7 6 7 4 3 3 4 5 5 3 2 3 3 4 4 4 4 5 6 7 7 7 9 8 5 3 3 5 6 7 7 8 8 9 9 9 10 8 8 8 9 8 8 7 6 5 4 3 2 3
8 9 7 7 8 7 8 6 1 3 6 8 8 7 10 10 9 9 9 10 10 10 10 9 10 9 8 7 7 7 6 5 6 6 7 7 7 6 6 7 5 3 0 0 2 1 3 3 4 4 4 6 6 9 9 8 8 7 6 3 3 4 5 5 6 7 6 2 2 6 8 9 9 8 11 14 11 8 8 7 5 4 3 3 2
6 7 6 4 5 5 4 3 3 3 6 6 4 6 7 7 8 8 9 10 12 11 10 9 9 9 9 9 8 8 8 8 7 7 8 8 8 8 7 7 6 6 5 7 6 4 4 4 4 4 5 6 6 9 10 10 10 9 6 5 4 4 5 5 7 6 5 4 6 5 2 6 6 4 8 12 12 10 6 7 7 6 4 4 2
7 5 4 3 3 3 2 3 3 5 3 3 3 5 7 8 8 7 9 9 10 8 7 8 8 8 9 9 10 10 11 10 10 10 9 7 6 5 7 6 7 7 7 7 5 6 5 4 4 5 5 6 7 10 12 12 10 11 10 6 6 6 5 5 5 5 4 7 11 13 12 10 11 14 14 12 13 12 8 9 9 8 7 6 3
5 6 7 4 3 2 3 4 7 8 5 4 6 7 8 8 6 6 7 8 8 6 6 7 7 6 7 7 8 9 9 9 10 10 9 9 8 7 5 6 6 6 6 6 5 5 5 4 3 5 7 7 8 10 12 12 13 10 9 6 6 5 6 6 6 7 6 7 8 10 16 14 12 14 16 15 16 13 8 10 10 10 9 8 9
4 5 3 3 4 6 7 7 7 5 4 5 5 7 7 6 6 5 7 7 6 4 4 3 5 6 7 7 7 8 8 9 9 9 9 9 8 9 10 9 8 6 7 7 6 6 6 7 4 3 4 5 7 8 10 13 13 13 12 8 5 5 7 8 8 8 7 7 8 8 10 15 16 15 12 15 16 17 13 10 9 10 10 11 8
7 5 3 4 5 4 6 6 6 6 6 6 6 7 7 6 6 7 7 6 4 4 5 5 5 7 7 7 7 7 7 7 7 6 6 7 7 8 8 9 9 9 9 9 10 9 8 8 7 6 5 5 5 7 10 15 15 14 12 11 7 8 8 8 7 7 7 8 8 9 9 12 15 14 12 15 16 17 13 10 11 12 13 11 12
6 8 7 6 5 6 7 8 7 7 7 7 7 8 6 6 8 11 9 8 9 8 8 8 9 9 8 8 7 6 5 4 4 4 5 5 5 5 6 6 7 7 8 9 9 9 9 9 9 8 6 6 7 9 8 14 17 17 13 13 8 9 10 7 6 6 7 7 9 10 9 11 14 15 15 12 13 16 16 9 12 11 12 18 15
8 9 7 6 6 7 6 4 5 5 5 6 7 8 8 9 10 7 6 8 8 8 8 9 9 9 7 6 6 7 6 5 6 5 4 4 4 4 4 5 5 5 5 6 7 7 8 9 9 8 8 8 7 8 11 10 15 18 18 12 15 11 7 7 8 8 9 9 8 8 8 9 10 9 7 12 15 15 10 5 10 13 16 17 13
6 6 6 6 5 4 3 3 4 4 4 4 5 8 8 9 7 4 6 7 7 6 7 7 6 6 6 6 6 6 6 6 7 7 6 6 6 5 5 5 5 5 5 5 6 6 6 7 8 8 9 9 8 8 11 14 13 16 16 11 10 11 8 6 6 8 7 7 7 8 8 9 10 10 13 15 14 14 11 15 17 16 17 14 9
6 6 6 6 5 3 3 3 5 6 5 5 5 7 6 6 3 4 7 7 7 7 7 7 6 6 6 5 5 6 6 6 6 6 7 6 6 6 6 5 4 5 5 5 6 5 6 6 7 7 8 8 9 9 9 12 14 13 13 9 9 10 10 6 5 6 4 6 7 7 8 11 14 15 15 14 13 13 13 12 13 16 15 10 10
5 5 5 4 4 1 4 5 6 5 7 6 6 6 6 3 2 3 4 4 4 5 5 4 4 4 4 4 4 4 4 4 4 4 3 3 3 4 5 5 4 4 3 5 5 5 6 6 6 7 7 8 9 9 9 9 7 5 6 9 8 6 9 10 8 5 8 9 9 9 9 6 4 4 4 2 4 8 14 17 19 18 9 9 9
4 3 4 6 4 4 5 5 5 4 5 5 5 5 4 3 3 3 3 3 4 3 2 2 2 3 3 3 4 4 5 5 4 4 4 4 5 5 5 4 4 5 4 4 4 4 5 6 7 7 8 8 8 8 9 9 7 5 2 0 0 4 7 7 7 4 6 6 8 7 5 6 5 7 7 8 6 3 8 10 9 7 7 7 8
3 4 4 4 4 4 4 5 5 3 4 5 5 4 3 3 3 3 3 4 4 4 4 4 4 3 3 2 3 4 4 4 4 3 5 5 5 5 5 6 6 6 6 6 5 5 5 6 7 7 8 8 8 8 8 8 9 7 6 3 2 3 5 5 5 5 6 7 7 7 9 7 7 6 5 4 5 4 5 7 5 5 7 7 8
4 3 3 2 2 3 3 5 4 3 4 5 4 3 3 4 3 3 5 7 6 5 5 5 5 5 5 4 5 4 5 5 4 4 4 3 5 5 5 5 5 6 6 6 6 5 5 5 5 6 7 8 8 9 9 10 12 11 9 7 4 6 5 7 7 6 6 5 6 7 6 7 8 7 5 4 2 4 6 8 8 8 8 8 8
3 4 4 4 4 3 4 4 2 3 5 4 4 3 3 4 4 5 5 5 4 5 5 5 5 5 5 6 6 6 6 6 6 6 6 6 5 6 6 6 6 8 11 9 5 4 6 6 6 7 4 5 7 10 17 21 21 20 16 15 11 9 9 5 8 11 7 7 6 7 8 8 8 7 7 7 7 5 5 6 6 7 7 7 7
5 6 5 5 5 5 4 4 2 2 4 4 3 3 4 4 4 3 3 4 3 3 4 6 4 4 5 5 5 6 6 6 6 6 6 7 7 5 8 11 10 10 10 11 12 11 10 10 8 7 8 11 13 14 16 17 18 17 16 13 12 10 8 10 14 9 4 6 6 6 4 2 6 9 8 8 7 7 6 6 6 6 6 7 7
Wind_Direction
67 97 91 71 55 73 94 102 127 147 130 128 138 150 152 157 155 158 145 136 135 138 142 145 146 132 122 170 186 189 197 203 213 232 226 207 184 163 163 149 135 137 138 135 134 132 132 136 131 134 133 126 133 146 150 136 130 134 121 98 116 106 91 102 126 116 110 76 54 43 31 30 30 32 24 31 60 64 65 96 69 50 29 48 17
73 80 79 67 77 86 96 115 135 141 163 153 156 147 147 154 162 154 135 138 148 150 148 153 160 170 164 181 184 175 180 176 209 231 199 182 161 165 173 154 145 148 147 139 131 132 137 135 138 137 126 130 138 142 137 140 117 117 130 95 65 117 115 161 167 121 51 131 127 82 36 24 32 26 26 18 35 36 45 42 52 123 108 7 100
103 100 106 126 130 134 139 148 158 160 157 163 144 141 146 154 154 154 158 152 158 156 150 163 174 170 168 172 170 141 191 185 177 179 168 157 166 172 165 160 146 152 148 140 137 143 144 147 151 144 140 144 129 134 141 149 155 159 156 135 118 64 96 157 191 64 134 106 109 100 141 81 341 16 5 18 14 16 53 74 108 108 51 32 60
112 112 115 115 119 116 116 128 126 102 49 110 153 147 147 153 160 164 164 162 162 170 167 165 165 169 137 127 140 139 161 158 118 114 120 125 168 165 161 160 159 154 148 144 133 141 148 152 150 148 148 150 146 145 151 160 165 171 159 133 126 111 101 143 298 162 130 137 132 151 176 127 120 278 57 338 341 1 47 48 93 119 139 78 60
121 120 119 118 121 132 142 150 145 144 151 164 176 166 157 160 167 167 167 166 167 165 166 144 130 116 88 89 95 78 66 93 95 83 131 157 138 145 173 165 149 133 138 133 133 143 147 150 157 162 155 157 149 149 164 175 180 175 165 144 152 140 141 154 294 124 149 257 150 118 58 347 209 141 120 6 357 25 34 296 114 120 107 111 145
133 129 127 129 137 139 142 143 154 163 156 164 162 162 155 160 164 168 168 165 165 165 153 145 153 144 137 139 141 132 129 128 143 155 159 152 163 157 97 141 135 134 135 137 133 143 148 154 161 161 165 162 157 158 157 149 162 154 169 162 162 152 144 146 157 318 162 192 207 168 167 172 158 166 92 158 333 42 57 47 62 51 101 121 113
118 119 126 133 145 139 150 159 164 158 161 158 156 156 161 162 171 172 170 163 154 153 156 148 139 160 161 158 147 147 150 180 164 161 156 171 119 107 113 126 137 135 147 145 151 157 138 155 157 159 165 163 155 144 158 171 174 177 148 151 182 146 138 151 166 183 89 34 19 267 189 159 143 137 166 129 98 7 40 82 53 44 70 88 98
125 127 134 146 151 155 161 165 168 162 147 143 142 151 159 167 170 172 169 161 156 160 161 156 154 169 149 142 148 153 159 166 160 156 149 142 118 121 99 96 108 137 151 166 167 149 148 149 147 163 169 165 162 162 169 161 160 161 156 168 153 167 175 156 173 179 165 198 91 107 96 114 132 84 120 148 132 127 96 7 34 42 54 35 76
126 125 140 152 157 158 156 165 167 150 155 154 157 157 161 169 169 171 176 167 157 171 161 163 157 163 149 151 154 167 153 147 143 140 138 132 114 102 92 83 82 77 102 112 106 137 154 162 175 193 176 174 164 140 142 154 173 155 143 150 165 185 191 163 153 178 161 166 123 82 105 124 110 98 111 88 128 121 67 130 134 25 56 46 81
133 149 159 159 160 164 169 162 161 166 169 164 164 168 171 168 167 174 184 169 160 171 163 158 171 152 147 158 153 153 136 130 131 137 137 132 120 118 108 96 86 75 66 71 98 98 98 110 137 171 179 157 146 163 163 172 189 160 171 175 167 170 193 168 168 160 160 165 155 152 128 115 94 84 73 97 56 46 148 165 162 141 116 48 106
148 158 162 163 169 165 161 168 176 171 184 181 169 164 160 162 164 176 180 149 162 172 165 165 172 158 158 162 152 144 140 137 133 136 135 121 126 129 117 116 99 104 95 77 87 94 87 85 89 98 117 133 131 147 167 171 163 154 158 159 165 167 180 180 140 144 150 158 151 156 158 160 166 162 166 160 137 125 108 129 139 139 132 125 131
147 148 153 159 167 173 167 162 175 178 173 178 157 154 164 165 166 167 159 151 159 166 163 163 163 167 164 159 147 147 144 145 147 153 152 143 142 139 140 107 96 96 99 90 68 83 92 83 79 79 90 116 137 148 157 150 147 137 134 142 166 171 161 158 150 149 156 161 162 168 168 127 120 145 159 150 140 149 143 147 138 116 92 85 117
148 153 156 163 167 168 165 153 152 174 183 174 161 159 158 159 158 156 163 151 162 166 168 161 153 167 151 148 147 149 147 146 148 142 148 142 142 137 136 124 117 98 102 98 100 103 106 92 77 83 86 115 143 138 145 133 106 116 133 139 156 169 175 163 162 174 166 163 177 189 153 146 147 145 134 141 130 127 139 135 134 125 134 134 151
161 163 165 157 158 160 144 154 168 185 185 166 157 157 156 149 150 160 167 156 159 165 159 145 152 140 109 114 135 142 148 145 146 141 152 142 147 150 152 147 140 143 129 123 137 105 85 113 111 94 94 108 117 116 125 139 135 136 142 138 149 169 162 171 165 147 156 138 122 156 154 139 153 148 148 137 146 138 147 143 138 81 111 136 148
158 151 139 130 140 164 166 164 167 173 170 150 156 156 151 155 161 164 157 157 158 160 140 136 140 126 104 45 67 177 154 143 145 145 147 137 144 142 141 139 136 151 128 131 108 109 121 111 95 79 77 95 108 107 104 100 102 99 108 120 114 127 144 159 127 131 135 130 128 144 134 119 217 165 151 161 149 159 152 156 139 128 94 91 119
142 148 133 129 151 178 168 159 155 161 167 158 161 170 169 173 168 164 161 156 155 142 134 137 134 113 87 50 163 188 163 131 129 132 142 139 141 139 146 145 139 131 121 119 120 122 124 98 74 69 84 100 108 109 107 104 106 108 104 105 99 88 133 146 145 143 149 142 135 124 130 150 184 167 150 154 178 165 151 155 146 141 141 140 89
142 143 141 142 153 174 170 155 153 155 162 164 165 178 182 171 166 161 156 149 148 144 140 141 135 123 109 58 159 178 159 148 153 155 136 124 128 136 140 143 131 127 131 126 122 114 116 110 94 81 81 103 102 105 111 112 108 104 108 96 89 57 94 126 141 155 170 146 142 155 154 154 166 169 163 173 150 120 138 136 151 160 153 133 144
142 130 131 138 146 156 163 163 162 156 147 145 166 174 185 194 185 168 157 153 157 155 149 147 135 125 106 87 185 193 153 140 138 131 125 111 108 120 123 124 136 137 128 129 122 124 119 113 108 96 92 101 117 117 114 112 103 95 103 91 95 104 88 67 89 123 117 107 120 121 137 145 158 163 182 173 142 159 149 154 147 183 166 149 156
135 131 140 147 152 159 172 158 136 137 151 160 162 164 173 188 194 168 162 168 163 153 141 131 128 121 123 154 165 172 144 128 119 123 121 115 121 125 126 129 119 119 117 121 119 122 118 113 115 103 98 114 122 123 115 110 113 106 100 106 108 108 97 85 73 105 102 106 111 105 105 112 137 144 132 127 147 161 170 162 154 152 257 160 144
118 117 139 165 163 152 145 141 133 136 134 130 121 98 130 129 127 162 144 104 98 113 121 122 121 112 110 119 137 158 143 131 134 127 118 121 127 124 125 121 136 123 124 130 132 137 132 121 116 111 107 120 126 133 127 118 108 117 126 110 113 101 99 107 93 86 113 107 97 84 78 105 119 118 114 109 117 154 169 164 152 153 150 147 129
117 113 81 76 88 70 70 67 68 63 72 88 105 123 136 116 112 104 93 93 93 84 99 115 116 118 125 139 148 146 133 131 126 121 119 123 123 126 129 136 118 126 132 132 140 148 144 134 123 130 134 137 130 136 125 118 107 113 114 121 113 99 106 110 106 76 72 92 95 94 80 81 102 103 108 113 123 129 126 143 145 134 139 160 129
124 107 83 73 74 76 47 33 48 48 22 80 75 106 96 94 92 99 102 100 102 99 108 113 112 123 132 144 149 143 131 128 121 121 124 131 135 139 140 131 135 155 143 151 159 169 147 135 144 142 127 131 142 143 142 117 117 118 122 112 112 102 107 113 109 102 77 89 107 101 92 99 116 123 137 137 143 136 131 129 140 142 149 161 156
80 66 75 75 78 69 79 49 54 96 82 56 62 79 91 93 86 87 96 90 101 110 97 85 76 56 37 15 9 26 109 126 122 129 133 139 143 141 145 142 148 160 165 161 173 170 170 163 155 166 138 151 151 163 170 129 133 140 144 150 114 121 132 134 126 134 134 128 111 117 128 130 129 113 122 129 126 120 124 129 140 140 142 156 162
71 70 70 77 83 68 69 49 46 15 34 63 88 89 80 83 76 81 91 93 93 95 92 84 73 68 71 64 50 31 2 350 96 133 131 141 145 148 152 151 159 159 171 194 179 168 166 170 170 183 188 158 152 164 167 146 153 152 156 163 153 148 151 156 148 146 146 138 132 120 144 134 123 118 129 116 104 112 120 123 122 129 137 151 161
84 75 73 77 74 75 76 77 63 42 47 38 53 70 68 41 62 58 65 83 99 99 102 95 95 87 78 83 94 111 129 55 350 351 123 138 148 148 157 166 157 168 180 172 200 172 160 175 180 194 203 172 180 172 151 153 164 165 168 161 171 165 164 167 167 160 160 141 137 138 153 129 119 119 126 124 132 129 140 132 135 145 149 158 157
64 62 59 55 58 65 64 58 57 57 60 57 66 83 102 116 87 99 94 76 60 80 84 84 85 95 100 102 116 112 69 60 72 334 2 66 155 154 163 180 170 172 178 184 181 182 176 190 191 196 190 191 188 176 163 163 163 168 174 166 166 163 169 171 173 163 157 147 137 142 138 118 115 124 135 129 128 134 129 132 137 149 151 151 156
63 63 59 54 48 48 47 39 38 42 54 54 59 79 81 81 80 76 78 94 96 84 86 91 97 112 125 156 129 86 57 107 149 191 101 21 321 158 155 181 191 165 176 183 187 175 193 180 191 185 185 184 186 189 161 165 153 163 169 160 151 154 169 176 177 173 172 154 143 142 140 132 126 133 140 149 141 141 149 157 161 157 153 146 155
63 58 61 61 55 50 45 43 44 39 34 41 35 40 62 67 84 92 89 88 86 92 94 101 118 129 137 124 95 110 122 69 60 61 58 55 12 343 306 211 151 166 181 183 182 185 186 185 180 187 190 178 174 184 169 177 184 176 172 161 154 153 169 189 189 194 181 173 172 169 168 169 158 163 158 167 151 154 151 158 177 147 153 146 157
67 64 65 61 59 54 51 45 44 48 50 44 35 28 25 32 31 46 65 66 78 96 91 85 76 82 72 78 92 105 122 124 99 53 55 46 14 323 304 291 199 186 179 182 182 175 155 179 185 188 183 179 178 186 185 175 196 207 196 182 172 169 168 181 197 206 206 194 193 194 188 179 179 171 175 166 166 153 150 154 179 153 154 147 147
76 70 66 66 62 56 54 49 40 29 35 38 40 38 38 37 30 36 47 40 57 66 73 62 61 60 72 71 61 63 58 53 53 39 23 33 33 14 324 350 347 72 9 275 176 152 146 152 160 182 192 185 194 197 196 187 183 186 203 212 188 187 178 180 187 202 216 218 208 208 208 185 174 164 166 162 148 144 154 161 168 164 159 150 155
82 80 70 64 58 53 49 47 42 40 36 38 39 41 46 47 45 44 39 27 44 58 57 54 46 34 44 58 48 48 49 59 83 111 224 141 157 105 310 331 350 36 66 44 93 123 94 125 157 164 178 194 198 207 218 199 193 188 185 197 199 203 193 186 193 190 202 210 219 218 204 177 163 159 156 154 150 150 147 148 162 185 177 161 154
75 68 63 58 54 52 45 45 37 31 26 34 39 42 46 49 54 58 55 49 52 54 56 57 55 55 51 56 48 39 68 34 72 120 317 1 54 36 341 315 334 2 70 72 69 69 82 114 130 154 175 186 186 181 193 208 208 204 193 190 198 201 195 198 198 205 206 199 198 191 203 192 183 175 162 149 146 149 145 137 122 122 142 182 199
77 68 65 63 55 46 48 40 30 25 35 23 39 50 46 39 48 49 60 57 57 55 53 52 52 52 45 46 39 35 25 7 359 27 67 56 107 195 212 240 301 336 355 78 100 70 78 75 119 144 188 195 180 180 170 182 197 212 219 204 199 200 198 203 198 202 205 197 187 194 205 211 210 190 167 165 159 152 140 137 129 111 89 99 115
92 89 81 71 74 53 48 58 44 19 6 26 46 57 58 54 55 52 56 58 61 58 54 53 54 51 42 39 43 41 37 36 46 53 73 117 129 202 250 294 359 8 32 339 346 131 150 154 198 209 234 254 249 227 201 180 174 179 194 201 208 202 202 198 202 199 199 195 189 193 200 204 205 190 188 173 168 158 155 145 139 125 116 78 72
94 88 84 86 77 74 66 52 49 36 14 26 34 27 45 52 48 56 52 55 52 54 50 48 52 53 52 49 53 50 44 31 25 25 30 35 29 24 45 110 186 262 287 266 233 220 212 201 203 218 234 251 247 226 213 217 207 191 187 183 191 182 187 199 207 207 200 194 196 201 200 198 192 190 198 186 173 175 165 161 151 147 125 80 63
86 90 89 92 94 90 80 72 22 40 48 43 44 25 48 44 38 46 51 52 49 47 45 39 39 36 38 39 46 50 49 45 37 29 33 29 20 20 19 5 24 6 346 170 317 280 246 218 224 218 220 251 258 241 229 222 207 222 208 207 179 173 183 204 209 207 209 192 244 222 207 205 196 196 206 195 189 174 170 153 156 142 111 77 54
88 91 88 85 98 101 111 122 117 81 77 62 48 59 68 64 50 40 48 50 46 39 35 37 37 29 27 29 32 35 34 32 33 37 32 23 17 8 3 5 7 3 7 2 349 322 304 292 267 236 226 249 263 260 240 228 217 190 189 217 204 193 189 204 218 217 193 173 213 212 309 335 342 301 229 197 202 169 149 160 169 155 140 126 72
118 105 96 83 61 56 74 95 94 85 72 82 67 65 73 71 64 50 49 48 55 48 36 40 37 28 27 24 25 25 21 16 18 18 15 12 16 13 12 3 9 354 352 345 329 330 317 295 271 267 251 255 264 264 259 253 230 191 197 204 207 200 209 214 226 231 200 204 218 215 209 192 201 224 230 203 200 186 171 174 168 159 155 147 149
62 81 83 65 36 32 39 70 71 60 40 52 60 63 62 60 58 59 62 59 57 48 37 39 37 37 35 32 28 28 23 18 13 6 5 6 6 3 356 5 4 357 348 334 335 325 316 294 259 255 256 251 262 272 272 261 258 210 195 217 203 192 205 215 216 227 222 213 227 227 224 217 207 220 212 206 204 199 180 178 176 164 168 172 181
28 29 36 28 19 36 50 54 58 60 64 67 73 67 62 57 47 50 51 49 43 39 42 44 43 42 41 37 35 31 26 21 14 7 5 3 356 1 1 358 356 358 347 342 339 337 326 314 294 257 252 232 242 260 260 252 243 241 203 200 197 194 212 221 212 213 217 228 233 233 235 232 228 229 208 199 203 198 191 184 166 173 173 187 170
53 41 34 30 16 33 56 48 37 35 36 40 51 59 56 50 42 41 33 21 18 28 33 36 45 48 45 44 39 40 35 29 27 19 5 2 2 358 355 357 350 346 347 344 341 337 331 323 316 308 297 287 276 275 283 281 273 255 226 193 206 210 219 218 214 212 215 219 228 233 238 229 221 226 218 208 204 205 197 180 183 184 190 157 140
72 61 59 61 58 60 52 40 29 31 25 23 32 36 37 34 37 31 21 23 34 36 39 39 40 38 36 35 34 28 38 38 34 30 21 9 352 353 351 348 344 344 343 336 332 330 329 323 324 325 327 315 306 295 283 285 280 275 251 198 206 218 214 209 213 220 221 222 224 226 231 234 227 224 228 215 205 207 203 186 198 180 134 144 156
52 45 36 57 65 64 61 44 24 28 22 23 26 23 19 26 39 27 32 43 42 38 37 36 32 29 23 24 21 21 19 19 15 12 18 13 2 5 356 355 354 347 343 335 330 331 332 332 330 331 331 328 326 321 302 287 278 273 270 217 213 222 193 197 202 216 219 223 221 226 236 242 246 242 203 201 212 210 203 179 149 147 156 156 144
54 56 46 50 57 68 57 43 36 24 11 12 40 42 46 50 33 2 37 44 42 39 41 37 30 23 18 12 14 16 19 17 11 8 9 7 1 0 360 359 354 351 344 339 335 336 337 335 329 320 322 322 322 319 316 312 298 283 277 262 224 221 211 210 211 221 225 224 217 220 219 210 207 193 190 192 182 177 183 180 164 155 145 148 135
62 42 35 43 42 67 60 30 11 6 6 23 61 75 60 55 6 23 41 39 35 34 36 31 21 15 8 1 12 19 17 14 11 11 5 356 351 351 354 346 353 350 344 341 327 331 329 320 318 318 315 316 315 318 316 314 318 318 299 270 217 202 210 203 231 241 225 215 210 197 184 189 196 193 188 178 176 174 151 152 152 150 146 142 145
58 39 36 40 26 49 70 52 38 40 53 57 67 84 82 67 28 50 57 61 55 46 38 24 12 9 4 14 22 12 12 7 5 5 358 340 340 338 340 329 339 331 331 330 320 325 323 320 315 314 314 309 312 313 310 311 323 343 339 328 300 235 197 201 229 239 194 176 162 151 155 159 128 109 131 176 203 166 155 148 152 153 155 147 143
74 46 42 26 41 59 68 71 59 35 70 75 76 69 89 96 78 70 65 69 64 62 56 33 18 12 21 36 21 1 355 354 352 347 348 348 340 341 334 330 325 323 323 320 318 323 319 318 317 319 315 314 311 309 307 303 296 300 275 191 106 299 272 232 211 182 138 132 141 146 143 122 102 110 103 93 71 86 127 129 142 147 141 133 132
78 39 52 59 62 78 76 81 73 63 71 74 78 85 94 90 77 66 69 61 44 30 22 11 5 7 6 6 355 347 349 340 332 334 333 333 333 328 329 319 321 316 317 313 316 315 313 312 316 315 314 315 313 312 306 301 304 301 291 264 194 183 197 224 237 196 155 137 129 117 117 117 114 101 92 67 88 90 97 98 90 96 96 93 96
43 34 73 88 97 73 73 85 94 91 77 77 82 81 81 82 75 63 49 42 25 8 3 357 353 353 343 340 344 337 332 329 320 319 306 291 293 307 303 297 287 284 284 291 297 284 283 292 292 297 309 313 314 311 300 296 293 289 277 264 221 221 202 203 214 178 118 106 112 120 125 135 144 137 131 116 87 106 105 118 122 108 102 111 118
28 41 46 68 41 26 64 83 82 68 78 83 74 60 51 51 48 44 48 48 28 5 355 348 345 345 333 340 337 333 327 327 321 316 317 311 283 281 282 285 291 290 293 290 252 259 279 291 293 281 253 264 296 293 294 297 294 292 279 250 236 216 204 182 154 161 147 144 157 158 166 156 152 150 145 146 148 139 127 112 102 106 112 112 115
42 59 39 53 46 41 48 61 30 37 81 89 73 58 51 39 54 49 63 58 50 10 347 331 335 332 329 325 326 326 326 320 315 311 311 307 305 295 273 274 277 283 287 288 295 288 280 276 277 290 295 285 276 278 285 292 296 293 282 253 228 215 192 154 145 128 122 155 160 149 123 146 166 150 151 154 153 147 139 124 124 120 113 115 117